Time,TemperatureF,DewpointF,PressureIn,WindDirection,WindDirectionDegrees,WindSpeedMPH,WindSpeedGustMPH,Humidity,HourlyPrecipIn,Conditions,Clouds,dailyrainin,SolarRadiationWatts/m^2,SoftwareType,DateUTC
2013-04-01 00:12:00,31.0,19.0,-100.00,ENE,70,6.0,9.0,61,0.00,,,0.00,0.000000,,2013-04-01 06:12:00,
2013-04-01 00:22:00,31.0,19.0,-100.00,ENE,70,6.0,9.0,61,0.00,,,0.00,0.000000,,2013-04-01 06:22:00,
2013-04-01 00:33:00,31.0,19.0,-100.00,ENE,70,6.0,9.0,61,0.00,,,0.00,0.000000,,2013-04-01 06:33:00,
2013-04-01 00:42:00,31.0,19.0,-100.00,ENE,70,6.0,9.0,61,0.00,,,0.00,0.000000,,2013-04-01 06:42:00,
2013-04-01 00:52:00,31.0,20.0,-100.00,ENE,69,7.0,10.0,62,0.00,,,0.00,0.000000,,2013-04-01 06:52:00,
2013-04-01 01:12:00,31.0,20.0,-100.00,ENE,69,7.0,10.0,62,0.00,,,0.00,0.000000,,2013-04-01 07:12:00,
2013-04-01 01:22:00,31.0,20.0,-100.00,ENE,69,7.0,10.0,62,0.00,,,0.00,0.000000,,2013-04-01 07:22:00,
2013-04-01 01:32:00,31.0,20.0,-100.00,ENE,69,7.0,10.0,62,0.00,,,0.00,0.000000,,2013-04-01 07:32:00,
2013-04-01 01:42:00,31.0,20.0,-100.00,ENE,69,7.0,10.0,62,0.00,,,0.00,0.000000,,2013-04-01 07:42:00,
2013-04-01 01:52:00,30.0,19.0,-100.00,ENE,74,4.0,9.0,64,0.00,,,0.00,0.000000,,2013-04-01 07:52:00,
2013-04-01 02:12:00,30.0,19.0,-100.00,ENE,74,4.0,9.0,64,0.00,,,0.00,0.000000,,2013-04-01 08:12:00,
2013-04-01 02:22:00,30.0,19.0,-100.00,ENE,74,4.0,9.0,64,0.00,,,0.00,0.000000,,2013-04-01 08:22:00,
2013-04-01 02:32:00,30.0,19.0,-100.00,ENE,74,4.0,9.0,64,0.00,,,0.00,0.000000,,2013-04-01 08:32:00,
2013-04-01 02:43:00,30.0,19.0,-100.00,ENE,74,4.0,9.0,64,0.00,,,0.00,0.000000,,2013-04-01 08:43:00,
2013-04-01 02:52:00,31.0,19.0,-100.00,ENE,71,5.0,10.0,61,0.00,,,0.00,0.000000,,2013-04-01 08:52:00,
2013-04-01 03:12:00,31.0,19.0,-100.00,ENE,71,5.0,10.0,61,0.00,,,0.00,0.000000,,2013-04-01 09:12:00,
2013-04-01 03:22:00,31.0,19.0,-100.00,ENE,71,5.0,10.0,61,0.00,,,0.00,0.000000,,2013-04-01 09:22:00,
2013-04-01 03:33:00,31.0,19.0,-100.00,ENE,71,5.0,10.0,61,0.00,,,0.00,0.000000,,2013-04-01 09:33:00,
2013-04-01 03:42:00,31.0,19.0,-100.00,ENE,71,5.0,10.0,61,0.00,,,0.00,0.000000,,2013-04-01 09:42:00,
2013-04-01 03:52:00,31.0,19.0,-100.00,East,80,4.0,9.0,61,0.00,,,0.00,0.000000,,2013-04-01 09:52:00,
2013-04-01 04:12:00,31.0,19.0,-100.00,East,80,4.0,9.0,61,0.00,,,0.00,0.000000,,2013-04-01 10:12:00,
2013-04-01 04:23:00,31.0,19.0,-100.00,East,80,4.0,9.0,61,0.00,,,0.00,0.000000,,2013-04-01 10:23:00,
2013-04-01 04:33:00,31.0,19.0,-100.00,East,80,4.0,9.0,61,0.00,,,0.00,0.000000,,2013-04-01 10:33:00,
2013-04-01 04:42:00,31.0,19.0,-100.00,East,80,4.0,9.0,61,0.00,,,0.00,0.000000,,2013-04-01 10:42:00,
2013-04-01 04:52:00,30.0,19.0,-100.00,East,80,3.0,8.0,62,0.00,,,0.00,0.000000,,2013-04-01 10:52:00,
2013-04-01 05:12:00,30.0,19.0,-100.00,East,80,3.0,8.0,62,0.00,,,0.00,0.000000,,2013-04-01 11:12:00,
2013-04-01 05:22:00,30.0,19.0,-100.00,East,80,3.0,8.0,62,0.00,,,0.00,0.000000,,2013-04-01 11:22:00,
2013-04-01 05:32:00,30.0,19.0,-100.00,East,80,3.0,8.0,62,0.00,,,0.00,0.000000,,2013-04-01 11:32:00,
2013-04-01 05:42:00,30.0,19.0,-100.00,East,80,3.0,8.0,62,0.00,,,0.00,0.000000,,2013-04-01 11:42:00,
2013-04-01 05:52:00,28.0,18.0,-100.00,ENE,71,5.0,8.0,66,0.00,,,0.00,0.000000,,2013-04-01 11:52:00,
2013-04-01 06:12:00,28.0,18.0,-100.00,ENE,71,5.0,8.0,66,0.00,,,0.00,0.000000,,2013-04-01 12:12:00,
2013-04-01 06:22:00,28.0,18.0,-100.00,ENE,71,5.0,8.0,66,0.00,,,0.00,0.000000,,2013-04-01 12:22:00,
2013-04-01 06:32:00,28.0,18.0,-100.00,ENE,71,5.0,8.0,66,0.00,,,0.00,0.000000,,2013-04-01 12:32:00,
2013-04-01 06:42:00,28.0,18.0,-100.00,ENE,71,5.0,8.0,66,0.00,,,0.00,0.000000,,2013-04-01 12:42:00,
2013-04-01 07:12:00,26.0,17.0,-100.00,ENE,70,5.0,9.0,69,0.00,,,0.00,0.000000,,2013-04-01 13:12:00,
2013-04-01 07:22:00,26.0,17.0,-100.00,ENE,70,5.0,9.0,69,0.00,,,0.00,0.000000,,2013-04-01 13:22:00,
2013-04-01 07:32:00,26.0,17.0,-100.00,ENE,70,5.0,9.0,69,0.00,,,0.00,0.000000,,2013-04-01 13:32:00,
2013-04-01 08:22:00,29.0,18.0,-100.00,ENE,70,6.0,10.0,63,0.00,,,0.00,11.000000,,2013-04-01 14:22:00,
2013-04-01 08:32:00,29.0,18.0,-100.00,ENE,70,6.0,10.0,63,0.00,,,0.00,11.000000,,2013-04-01 14:32:00,
2013-04-01 08:52:00,32.0,19.0,-100.00,ENE,70,5.0,10.0,58,-99.99,,,0.00,32.000000,,2013-04-01 14:52:00,
2013-04-01 09:12:00,32.0,19.0,-100.00,ENE,70,5.0,10.0,58,-99.99,,,0.00,32.000000,,2013-04-01 15:12:00,
2013-04-01 09:22:00,32.0,19.0,-100.00,ENE,70,5.0,10.0,58,-99.99,,,0.00,32.000000,,2013-04-01 15:22:00,
2013-04-01 09:43:00,32.0,19.0,-100.00,ENE,70,5.0,10.0,58,-99.99,,,0.00,32.000000,,2013-04-01 15:43:00,
2013-04-01 10:23:00,42.0,20.0,-100.00,ESE,123,0.0,8.0,41,0.00,,,0.00,167.000000,,2013-04-01 16:23:00,
2013-04-01 12:12:00,48.0,22.0,-100.00,North,359,2.0,8.0,36,-99.99,,,0.00,682.000000,,2013-04-01 18:12:00,
2013-04-01 12:22:00,48.0,22.0,-100.00,North,359,2.0,8.0,36,-99.99,,,0.00,682.000000,,2013-04-01 18:22:00,
2013-04-01 12:32:00,48.0,22.0,-100.00,North,359,2.0,8.0,36,-99.99,,,0.00,682.000000,,2013-04-01 18:32:00,
2013-04-01 12:42:00,48.0,22.0,-100.00,North,359,2.0,8.0,36,-99.99,,,0.00,682.000000,,2013-04-01 18:42:00,
2013-04-01 12:51:00,48.0,22.0,-100.00,North,359,2.0,8.0,36,-99.99,,,0.00,682.000000,,2013-04-01 18:51:00,
2013-04-01 12:52:00,49.0,20.0,-100.00,WNW,284,4.0,9.0,31,0.00,,,0.00,777.000000,,2013-04-01 18:52:00,
2013-04-01 13:12:00,49.0,20.0,-100.00,WNW,284,4.0,9.0,31,0.00,,,0.00,777.000000,,2013-04-01 19:12:00,
2013-04-01 13:23:00,49.0,20.0,-100.00,WNW,284,4.0,9.0,31,0.00,,,0.00,777.000000,,2013-04-01 19:23:00,
2013-04-01 13:32:00,49.0,20.0,-100.00,WNW,284,4.0,9.0,31,0.00,,,0.00,777.000000,,2013-04-01 19:32:00,
2013-04-01 13:42:00,49.0,20.0,-100.00,WNW,284,4.0,9.0,31,0.00,,,0.00,777.000000,,2013-04-01 19:42:00,
2013-04-01 14:22:00,51.0,20.0,-100.00,West,259,4.0,9.0,29,0.00,,,0.00,668.000000,,2013-04-01 20:22:00,
2013-04-01 14:32:00,51.0,20.0,-100.00,West,259,4.0,9.0,29,0.00,,,0.00,668.000000,,2013-04-01 20:32:00,
2013-04-01 14:42:00,51.0,20.0,-100.00,West,259,4.0,9.0,29,0.00,,,0.00,668.000000,,2013-04-01 20:42:00,
2013-04-01 14:51:00,51.0,20.0,-100.00,West,259,4.0,9.0,29,0.00,,,0.00,668.000000,,2013-04-01 20:51:00,
2013-04-01 14:52:00,50.0,21.0,-100.00,WSW,242,7.0,13.0,31,0.00,,,0.00,655.000000,,2013-04-01 20:52:00,
2013-04-01 15:22:00,50.0,21.0,-100.00,WSW,242,7.0,13.0,31,0.00,,,0.00,655.000000,,2013-04-01 21:22:00,
2013-04-01 15:32:00,50.0,21.0,-100.00,WSW,242,7.0,13.0,31,0.00,,,0.00,655.000000,,2013-04-01 21:32:00,
2013-04-01 15:43:00,50.0,21.0,-100.00,WSW,242,7.0,13.0,31,0.00,,,0.00,655.000000,,2013-04-01 21:43:00,
2013-04-01 15:52:00,53.0,19.0,-100.00,WSW,256,4.0,10.0,26,0.00,,,0.00,652.000000,,2013-04-01 21:52:00,
2013-04-01 16:12:00,53.0,19.0,-100.00,WSW,256,4.0,10.0,26,0.00,,,0.00,652.000000,,2013-04-01 22:12:00,
2013-04-01 16:22:00,53.0,19.0,-100.00,WSW,256,4.0,10.0,26,0.00,,,0.00,652.000000,,2013-04-01 22:22:00,
2013-04-01 16:33:00,53.0,19.0,-100.00,WSW,256,4.0,10.0,26,0.00,,,0.00,652.000000,,2013-04-01 22:33:00,
2013-04-01 16:42:00,53.0,19.0,-100.00,WSW,256,4.0,10.0,26,0.00,,,0.00,652.000000,,2013-04-01 22:42:00,
2013-04-01 16:52:00,57.0,19.0,-100.00,NE,35,1.0,11.0,22,0.00,,,0.00,625.000000,,2013-04-01 22:52:00,
2013-04-01 17:22:00,57.0,19.0,-100.00,NE,35,1.0,11.0,22,0.00,,,0.00,625.000000,,2013-04-01 23:22:00,
2013-04-01 17:32:00,57.0,19.0,-100.00,NE,35,1.0,11.0,22,0.00,,,0.00,625.000000,,2013-04-01 23:32:00,
2013-04-01 17:42:00,57.0,19.0,-100.00,NE,35,1.0,11.0,22,0.00,,,0.00,625.000000,,2013-04-01 23:42:00,
2013-04-01 17:52:00,51.0,26.0,-100.00,ENE,72,1.0,7.0,37,0.00,,,0.00,294.000000,,2013-04-01 23:52:00,
2013-04-01 18:12:00,51.0,26.0,-100.00,ENE,72,1.0,7.0,37,0.00,,,0.00,294.000000,,2013-04-02 00:12:00,
2013-04-01 18:22:00,51.0,26.0,-100.00,ENE,72,1.0,7.0,37,0.00,,,0.00,294.000000,,2013-04-02 00:22:00,
2013-04-01 18:32:00,51.0,26.0,-100.00,ENE,72,1.0,7.0,37,0.00,,,0.00,294.000000,,2013-04-02 00:32:00,
2013-04-01 18:42:00,51.0,26.0,-100.00,ENE,72,1.0,7.0,37,0.00,,,0.00,294.000000,,2013-04-02 00:42:00,
2013-04-01 18:52:00,46.0,24.0,-100.00,ENE,67,0.0,8.0,41,0.00,,,0.00,153.000000,,2013-04-02 00:52:00,
2013-04-01 19:12:00,46.0,24.0,-100.00,ENE,67,0.0,8.0,41,0.00,,,0.00,153.000000,,2013-04-02 01:12:00,
2013-04-01 19:22:00,46.0,24.0,-100.00,ENE,67,0.0,8.0,41,0.00,,,0.00,153.000000,,2013-04-02 01:22:00,
2013-04-01 19:32:00,46.0,24.0,-100.00,ENE,67,0.0,8.0,41,0.00,,,0.00,153.000000,,2013-04-02 01:32:00,
2013-04-01 19:42:00,46.0,24.0,-100.00,ENE,67,0.0,8.0,41,0.00,,,0.00,153.000000,,2013-04-02 01:42:00,
2013-04-01 19:52:00,43.0,20.0,-100.00,NNE,14,6.0,17.0,40,0.00,,,0.00,45.000000,,2013-04-02 01:52:00,
2013-04-01 20:22:00,43.0,20.0,-100.00,NNE,14,6.0,17.0,40,0.00,,,0.00,45.000000,,2013-04-02 02:22:00,
2013-04-01 20:32:00,43.0,20.0,-100.00,NNE,14,6.0,17.0,40,0.00,,,0.00,45.000000,,2013-04-02 02:32:00,
2013-04-01 20:42:00,43.0,20.0,-100.00,NNE,14,6.0,17.0,40,0.00,,,0.00,45.000000,,2013-04-02 02:42:00,
2013-04-01 20:52:00,39.0,21.0,-100.00,North,11,4.0,15.0,49,0.00,,,0.00,0.000000,,2013-04-02 02:52:00,
2013-04-01 21:12:00,39.0,21.0,-100.00,North,11,4.0,15.0,49,0.00,,,0.00,0.000000,,2013-04-02 03:12:00,
2013-04-01 21:22:00,39.0,21.0,-100.00,North,11,4.0,15.0,49,0.00,,,0.00,0.000000,,2013-04-02 03:22:00,
2013-04-01 21:33:00,39.0,21.0,-100.00,North,11,4.0,15.0,49,0.00,,,0.00,0.000000,,2013-04-02 03:33:00,
2013-04-01 21:43:00,39.0,21.0,-100.00,North,11,4.0,15.0,49,0.00,,,0.00,0.000000,,2013-04-02 03:43:00,
2013-04-01 21:52:00,37.0,21.0,-100.00,ENE,77,4.0,9.0,53,0.00,,,0.00,0.000000,,2013-04-02 03:52:00,
2013-04-01 22:22:00,37.0,21.0,-100.00,ENE,77,4.0,9.0,53,0.00,,,0.00,0.000000,,2013-04-02 04:22:00,
2013-04-01 22:32:00,37.0,21.0,-100.00,ENE,77,4.0,9.0,53,0.00,,,0.00,0.000000,,2013-04-02 04:32:00,
2013-04-01 22:42:00,37.0,21.0,-100.00,ENE,77,4.0,9.0,53,0.00,,,0.00,0.000000,,2013-04-02 04:42:00,
2013-04-01 22:52:00,36.0,21.0,-100.00,ENE,71,4.0,8.0,53,0.00,,,0.00,0.000000,,2013-04-02 04:52:00,
2013-04-01 23:22:00,36.0,21.0,-100.00,ENE,71,4.0,8.0,53,0.00,,,0.00,0.000000,,2013-04-02 05:22:00,
2013-04-01 23:32:00,36.0,21.0,-100.00,ENE,71,4.0,8.0,53,0.00,,,0.00,0.000000,,2013-04-02 05:32:00,
2013-04-01 23:42:00,36.0,21.0,-100.00,ENE,71,4.0,8.0,53,0.00,,,0.00,0.000000,,2013-04-02 05:42:00,
2013-04-01 23:52:00,33.0,19.0,-100.00,ENE,75,3.0,8.0,55,0.00,,,0.00,0.000000,,2013-04-02 05:52:00,